FW1892 Weather Reports


Display with metric or nautical units.
time (UTC)temp
F
wind
direction
speed
MPH
gust
MPH
rain 1hr
in
rain 24hr
in
rain mn
in
humidity
%
barometer
mb
20260506184948 62 106 0.0 1.0 0.07 0.10 0.10 89 1004.7
20260506184445 62 165 0.0 4.0 0.07 0.10 0.10 88 1004.7
20260506183942 62 95 0.0 0.0 0.05 0.09 0.09 88 1005.0
20260506183437 63 172 2.0 3.0 0.07 0.08 0.08 87 1005.1
20260506182935 63 128 1.0 2.0 0.12 0.08 0.08 87 1005.1
20260506182432 63 148 0.0 1.0 0.05 0.07 0.07 86 1005.1
20260506181929 63 125 0.0 0.0 0.07 0.06 0.06 86 1005.4
20260506181427 63 159 0.0 1.0 0.12 0.06 0.06 84 1005.4
20260506180924 64 117 1.0 2.0 0.12 0.05 0.05 83 1005.4
20260506180420 64 295 1.0 2.0 0.12 0.04 0.04 81 1005.4
20260506175917 64 130 1.0 1.0 0.12 0.03 0.03 79 1005.5
20260506175414 65 302 1.0 2.0 0.07 0.02 0.02 76 1005.6
20260506174910 66 148 1.0 4.0 0.05 0.01 0.01 74 1005.7
20260506174408 68 262 2.0 8.0 0.00 0.00 0.00 69 1005.7
20260506173905 68 125 1.0 6.0 0.00 0.00 0.00 66 1005.5
20260506173402 69 138 2.0 14.0 0.00 0.00 0.00 62 1005.2
20260506172859 70 6 2.0 6.0 0.00 0.00 0.00 61 1005.3
20260506172355 70 260 2.0 6.0 0.00 0.00 0.00 61 1005.1
20260506171853 71 93 3.0 4.0 0.00 0.00 0.00 59 1005.0
20260506171350 71 78 1.0 8.0 0.00 0.00 0.00 58 1005.0
20260506170847 71 76 1.0 4.0 0.00 0.00 0.00 59 1005.1
20260506170343 71 89 2.0 4.0 0.00 0.00 0.00 59 1004.9
20260506165837 70 207 2.0 3.0 0.00 0.00 0.00 61 1005.1
20260506165334 70 155 1.0 3.0 0.00 0.00 0.00 61 1005.3
20260506164830 70 237 6.0 8.0 0.00 0.00 0.00 60 1005.2
20260506164327 71 202 7.0 10.0 0.00 0.00 0.00 59 1005.4
20260506163825 70 160 1.0 3.0 0.00 0.00 0.00 60 1005.3
20260506163319 71 182 6.0 9.0 0.00 0.00 0.00 60 1005.4
20260506162815 70 134 1.0 8.0 0.00 0.00 0.00 60 1005.4
20260506162313 70 118 0.0 2.0 0.00 0.00 0.00 61 1005.5
20260506161805 70 209 2.0 4.0 0.00 0.00 0.00 61 1005.5
20260506161302 71 166 3.0 8.0 0.00 0.00 0.00 60 1005.6
20260506160759 70 186 1.0 7.0 0.00 0.00 0.00 62 1006.0
20260506160256 70 89 2.0 9.0 0.00 0.00 0.00 61 1006.1
20260506155755 70 121 6.0 9.0 0.00 0.00 0.00 62 1006.3
20260506155251 69 121 4.0 7.0 0.00 0.00 0.00 62 1006.5
20260506153358 69 92 0.0 4.0 0.00 0.00 0.00 64 1006.7
20260506152855 69 160 1.0 8.0 0.00 0.00 0.00 64 1006.8
20260506152352 69 48 2.0 6.0 0.00 0.00 0.00 64 1006.9
20260506151850 69 120 1.0 8.0 0.00 0.00 0.00 65 1006.9
20260506151347 69 207 3.0 7.0 0.00 0.00 0.00 64 1007.0
20260506150844 69 237 3.0 6.0 0.00 0.00 0.00 65 1007.1
20260506150341 69 189 1.0 9.0 0.00 0.00 0.00 65 1007.0
20260506145837 69 135 2.0 3.0 0.00 0.00 0.00 66 1006.9
20260506145334 68 200 3.0 3.0 0.00 0.00 0.00 66 1006.7
20260506144832 68 205 2.0 3.0 0.00 0.00 0.00 67 1007.0
20260506144328 68 181 5.0 9.0 0.00 0.00 0.00 67 1007.0
20260506143826 68 136 2.0 6.0 0.00 0.00 0.00 66 1006.9
20260506143323 68 162 2.0 6.0 0.00 0.00 0.00 66 1006.9
20260506142821 68 161 2.0 6.0 0.00 0.00 0.00 67 1006.8
20260506142319 67 125 1.0 3.0 0.00 0.00 0.00 68 1006.7
20260506141817 67 197 2.0 7.0 0.00 0.00 0.00 68 1006.8
20260506141315 67 125 3.0 7.0 0.00 0.00 0.00 68 1006.8
20260506140813 67 153 4.0 8.0 0.00 0.00 0.00 68 1006.7
20260506140309 67 140 1.0 3.0 0.00 0.00 0.00 68 1006.7
20260506135806 67 158 2.0 6.0 0.00 0.00 0.00 68 1006.6
20260506135305 66 144 1.0 7.0 0.00 0.00 0.00 69 1006.6
20260506134759 66 98 2.0 6.0 0.00 0.00 0.00 70 1006.8
20260506134255 65 225 3.0 4.0 0.00 0.00 0.00 71 1006.8
20260506133753 65 117 2.0 10.0 0.00 0.00 0.00 71 1007.2
20260506133249 65 208 4.0 8.0 0.00 0.00 0.00 71 1007.1
20260506132746 65 100 2.0 4.0 0.00 0.00 0.00 71 1006.9
20260506132244 65 227 5.0 6.0 0.00 0.00 0.00 71 1007.3
20260506131741 65 126 2.0 6.0 0.00 0.00 0.00 72 1007.0
20260506131237 64 196 2.0 4.0 0.00 0.00 0.00 72 1007.0
20260506130734 64 146 1.0 3.0 0.00 0.00 0.00 72 1007.1
20260506130231 64 97 1.0 4.0 0.00 0.00 0.00 72 1007.1
20260506125729 64 144 1.0 8.0 0.00 0.00 0.00 73 1007.1
20260506125227 64 175 4.0 6.0 0.00 0.00 0.00 72 1007.2
20260506124725 64 289 2.0 6.0 0.00 0.00 0.00 72 1007.1
20260506124222 64 176 3.0 4.0 0.00 0.00 0.00 72 1007.2
20260506123719 64 152 3.0 4.0 0.00 0.00 0.00 73 1007.3
20260506123218 63 212 2.0 8.0 0.00 0.00 0.00 73 1007.1
20260506122715 63 121 1.0 2.0 0.00 0.00 0.00 74 1007.2
20260506122212 63 202 2.0 4.0 0.00 0.00 0.00 74 1007.1
20260506121710 63 191 4.0 6.0 0.00 0.00 0.00 74 1007.1
20260506121206 63 155 2.0 3.0 0.00 0.00 0.00 74 1007.3
20260506120704 63 201 2.0 8.0 0.00 0.00 0.00 74 1007.5
20260506120201 63 199 1.0 6.0 0.00 0.00 0.00 74 1007.5
20260506115659 63 212 5.0 6.0 0.00 0.00 0.00 74 1007.5
20260506115157 62 132 1.0 2.0 0.00 0.00 0.00 75 1007.4
20260506114654 62 145 4.0 6.0 0.00 0.00 0.00 75 1007.7
20260506114152 62 53 1.0 10.0 0.00 0.00 0.00 76 1007.8
20260506113650 62 182 4.0 6.0 0.00 0.00 0.00 75 1007.8
20260506113147 61 144 1.0 3.0 0.00 0.00 0.00 75 1007.7
20260506112643 61 150 4.0 6.0 0.00 0.00 0.00 75 1007.7
20260506112141 61 157 0.0 1.0 0.00 0.00 0.00 76 1007.9
20260506111639 61 125 2.0 6.0 0.00 0.00 0.00 75 1007.8
20260506111136 61 138 0.0 1.0 0.00 0.00 0.00 75 1007.8
20260506110633 61 164 4.0 4.0 0.00 0.00 0.00 76 1007.9
20260506110131 61 142 2.0 4.0 0.00 0.00 0.00 76 1007.7
20260506105627 61 158 1.0 2.0 0.00 0.00 0.00 77 1007.8
20260506105124 60 191 6.0 8.0 0.00 0.00 0.00 77 1007.7
20260506104622 60 153 1.0 2.0 0.00 0.00 0.00 77 1008.0
20260506104119 60 205 2.0 3.0 0.00 0.00 0.00 77 1007.8
20260506103617 60 154 0.0 3.0 0.00 0.00 0.00 77 1007.8
20260506103113 60 88 1.0 4.0 0.00 0.00 0.00 77 1007.7
20260506102612 60 126 0.0 3.0 0.00 0.00 0.00 77 1007.4
20260506102109 60 181 1.0 3.0 0.00 0.00 0.00 77 1007.6
20260506101605 60 153 0.0 2.0 0.00 0.00 0.00 77 1007.6
20260506101102 60 110 1.0 3.0 0.00 0.00 0.00 76 1007.5
20260506100601 60 127 1.0 2.0 0.00 0.00 0.00 77 1007.7
20260506100058 60 123 2.0 4.0 0.00 0.00 0.00 77 1007.6
20260506095557 60 106 1.0 4.0 0.00 0.00 0.00 77 1007.8
20260506095053 60 142 1.0 1.0 0.00 0.00 0.00 76 1007.9
20260506094551 60 121 0.0 3.0 0.00 0.00 0.00 76 1007.7
20260506094048 60 203 3.0 4.0 0.00 0.00 0.00 76 1007.7
20260506093547 60 108 2.0 3.0 0.00 0.00 0.00 76 1007.5
20260506093044 60 107 0.0 2.0 0.00 0.00 0.00 76 1007.6
20260506092541 60 160 2.0 4.0 0.00 0.00 0.00 76 1007.4
20260506092038 60 124 1.0 8.0 0.00 0.00 0.00 76 1007.6
20260506091536 60 121 1.0 2.0 0.00 0.00 0.00 76 1007.8
20260506091033 60 198 1.0 2.0 0.00 0.00 0.00 76 1007.5
20260506090531 60 147 1.0 2.0 0.00 0.00 0.00 75 1007.7
20260506090027 60 97 1.0 1.0 0.00 0.00 0.00 75 1007.6
20260506085524 60 125 0.0 2.0 0.00 0.00 0.00 75 1007.5
20260506085021 60 127 0.0 2.0 0.00 0.00 0.00 75 1007.5
20260506084518 60 120 0.0 6.0 0.00 0.00 0.00 75 1007.8
20260506084013 59 126 0.0 2.0 0.00 0.00 0.00 75 1007.7
20260506083511 59 148 0.0 0.0 0.00 0.00 0.00 75 1007.7
20260506083008 59 123 0.0 2.0 0.00 0.00 0.00 75 1007.4
20260506082505 59 132 0.0 1.0 0.00 0.00 0.00 76 1007.4
20260506082000 59 124 0.0 0.0 0.00 0.00 0.00 75 1007.7
20260506081459 59 171 0.0 0.0 0.00 0.00 0.00 75 1007.6
20260506080956 59 129 0.0 0.0 0.00 0.00 0.00 75 1007.6
20260506080453 58 102 0.0 1.0 0.00 0.00 0.00 75 1007.6
20260506073437 60 147 0.0 0.0 0.00 0.00 0.00 71 1007.7
20260506072934 60 137 0.0 0.0 0.00 0.00 0.00 70 1007.6
20260506072431 60 115 0.0 0.0 0.00 0.00 0.00 70 1007.6
20260506071929 60 107 0.0 1.0 0.00 0.00 0.00 70 1007.6
20260506071427 60 130 0.0 0.0 0.00 0.00 0.00 70 1007.4
20260506070924 61 92 1.0 1.0 0.00 0.00 0.00 68 1007.3
20260506070420 62 140 1.0 1.0 0.00 0.00 0.00 68 1007.3
20260506062358 62 102 1.0 1.0 0.00 0.00 0.00 66 1007.2
20260506061854 62 150 1.0 1.0 0.00 0.00 0.00 67 1007.1
20260506061351 62 110 1.0 2.0 0.00 0.00 0.00 67 1007.0
20260506060848 62 116 0.0 1.0 0.00 0.00 0.00 66 1007.2
20260506060346 62 125 0.0 0.0 0.00 0.00 0.00 66 1007.2
20260506051318 62 107 0.0 3.0 0.00 0.00 0.00 64 1007.3
20260506050816 62 153 0.0 0.0 0.00 0.00 0.00 64 1007.5
20260506050313 63 125 0.0 0.0 0.00 0.00 0.00 63 1007.5
20260506044804 63 100 1.0 1.0 0.00 0.00 0.00 62 1007.7
20260506044301 64 117 0.0 1.0 0.00 0.00 0.00 61 1007.5
20260506043758 64 134 0.0 2.0 0.00 0.00 0.00 61 1007.6
20260506043255 64 94 0.0 4.0 0.00 0.00 0.00 61 1007.8
20260506042754 64 225 2.0 7.0 0.00 0.00 0.00 60 1007.5
20260506042253 64 165 1.0 2.0 0.00 0.00 0.00 61 1007.5
20260506041751 64 195 0.0 1.0 0.00 0.00 0.00 60 1007.5
20260506041247 64 136 1.0 2.0 0.00 0.00 0.00 60 1007.7
20260506040745 65 128 0.0 2.0 0.00 0.00 0.00 60 1007.4
20260506040242 65 197 4.0 6.0 0.00 0.00 0.00 59 1007.6
20260506035739 65 110 0.0 3.0 0.00 0.00 0.00 59 1007.4
20260506035236 65 58 1.0 4.0 0.00 0.00 0.00 60 1007.7
20260506034733 66 153 0.0 1.0 0.00 0.00 0.00 59 1007.5
20260506034230 66 157 1.0 7.0 0.00 0.00 0.00 58 1007.4
20260506033727 66 223 1.0 6.0 0.00 0.00 0.00 59 1007.4
20260506033224 66 121 2.0 2.0 0.00 0.00 0.00 58 1007.4
20260506032720 66 48 0.0 3.0 0.00 0.00 0.00 58 1007.5
20260506032217 66 202 2.0 2.0 0.00 0.00 0.00 57 1007.3
20260506031714 66 107 4.0 6.0 0.00 0.00 0.00 57 1007.2
20260506031212 66 209 1.0 6.0 0.00 0.00 0.00 57 1007.3
20260506030710 67 203 1.0 2.0 0.00 0.00 0.00 57 1007.2
20260506030207 67 134 3.0 7.0 0.00 0.00 0.00 56 1007.1
20260506025703 66 207 4.0 6.0 0.00 0.00 0.00 57 1007.3
20260506025159 66 199 4.0 7.0 0.00 0.00 0.00 57 1007.4
20260506024657 66 138 1.0 2.0 0.00 0.00 0.00 59 1007.3
20260506024153 65 136 0.0 4.0 0.00 0.00 0.00 62 1007.4
20260506023649 64 144 0.0 0.0 0.00 0.00 0.00 64 1007.3
20260506023147 64 84 0.0 0.0 0.00 0.00 0.00 69 1007.3
20260506022644 64 122 0.0 0.0 0.00 0.00 0.00 69 1007.3
20260506022141 64 116 0.0 0.0 0.00 0.00 0.00 68 1007.2
20260506021639 65 135 0.0 0.0 0.00 0.00 0.00 67 1007.2
20260506021136 65 142 0.0 0.0 0.00 0.00 0.00 66 1007.1
20260506020633 66 129 0.0 0.0 0.00 0.00 0.00 65 1007.2
20260506020131 66 148 0.0 0.0 0.00 0.00 0.00 64 1007.2
20260506015628 67 124 0.0 0.0 0.00 0.00 0.00 62 1007.3
20260506015125 68 124 0.0 0.0 0.00 0.00 0.00 61 1007.2
20260506014623 68 124 0.0 0.0 0.00 0.00 0.00 60 1007.2
20260506014118 69 144 0.0 0.0 0.00 0.00 0.00 58 1007.4
20260506013617 70 144 0.0 0.0 0.00 0.00 0.00 57 1007.4
20260506013113 70 262 1.0 2.0 0.00 0.00 0.00 56 1007.3
20260506012609 71 155 0.0 0.0 0.00 0.00 0.00 55 1007.2
20260506012106 71 118 1.0 3.0 0.00 0.00 0.00 54 1007.1
20260506011604 71 171 0.0 2.0 0.00 0.00 0.00 53 1007.2
20260506011100 72 132 1.0 1.0 0.00 0.00 0.00 52 1007.1
20260506010559 72 174 2.0 2.0 0.00 0.00 0.00 51 1006.9
20260506010055 72 149 0.0 2.0 0.00 0.00 0.00 50 1006.8
20260506005552 73 134 5.0 9.0 0.00 0.00 0.00 49 1006.8
20260506005049 73 288 3.0 6.0 0.00 0.00 0.00 49 1007.2
20260506005012 74 254 0.0 1.0 0.00 0.00 0.00 52 1006.2
20260506004546 74 294 4.0 6.0 0.00 0.00 0.00 46 1007.2
20260506004042 74 284 2.0 4.0 0.00 0.00 0.00 44 1007.3
20260506004011 74 280 0.0 0.0 0.00 0.00 0.00 48 1006.3
20260506003539 74 129 1.0 3.0 0.00 0.00 0.00 44 1006.8
20260506003036 74 151 0.0 2.0 0.00 0.00 0.00 44 1006.5
20260506003011 75 247 0.0 0.0 0.00 0.00 0.00 47 1005.7
20260506002531 75 207 2.0 3.0 0.00 0.00 0.00 43 1006.2
20260506002027 75 61 1.0 3.0 0.00 0.00 0.00 43 1006.0
20260506001524 75 199 2.0 6.0 0.00 0.00 0.00 43 1005.3
20260506001021 75 208 8.0 8.0 0.00 0.00 0.00 41 1005.4
20260506001011 76 182 8.0 2.0 0.00 0.00 0.00 45 1004.5
20260506000519 76 144 2.0 4.0 0.00 0.00 0.00 41 1005.1
20260506000016 76 128 1.0 6.0 0.00 0.00 0.00 40 1005.1
20260506000011 76 49 0.0 1.0 0.00 0.00 0.00 44 1004.0
20260505235514 76 257 4.0 6.0 0.00 0.00 0.00 40 1004.6
20260505235010 76 234 3.0 11.0 0.00 0.00 0.00 39 1004.9
20260505234507 76 168 1.0 9.0 0.00 0.00 0.00 39 1004.5
20260505234004 77 160 2.0 7.0 0.00 0.00 0.00 38 1004.5
20260505233501 77 176 2.0 4.0 0.00 0.00 0.00 38 1004.4
20260505232959 77 90 3.0 6.0 0.00 0.00 0.00 38 1004.3
20260505232457 77 152 1.0 6.0 0.00 0.00 0.00 38 1004.3
20260505231953 77 318 5.0 6.0 0.00 0.00 0.00 37 1004.1
20260505231451 78 249 2.0 9.0 0.00 0.00 0.00 37 1004.2
20260505230949 78 126 2.0 8.0 0.00 0.00 0.00 36 1003.6
20260505230446 78 198 6.0 10.0 0.00 0.00 0.00 36 1004.0
20260505225942 78 315 1.0 6.0 0.00 0.00 0.00 36 1003.8
20260505225440 78 353 4.0 7.0 0.00 0.00 0.00 36 1003.7
20260505224936 79 134 2.0 9.0 0.00 0.00 0.00 36 1003.8
20260505224433 79 145 1.0 8.0 0.00 0.00 0.00 36 1003.7
20260505223930 79 152 1.0 6.0 0.00 0.00 0.00 35 1003.6
20260505223427 80 280 7.0 9.0 0.00 0.00 0.00 34 1003.4
20260505222923 80 139 2.0 8.0 0.00 0.00 0.00 34 1003.6
20260505222420 81 238 5.0 9.0 0.00 0.00 0.00 34 1003.2
20260505221916 81 222 2.0 6.0 0.00 0.00 0.00 33 1003.2
20260505221413 81 59 2.0 14.0 0.00 0.00 0.00 32 1003.3
20260505220910 81 301 4.0 10.0 0.00 0.00 0.00 32 1003.2
20260505220407 81 249 4.0 9.0 0.00 0.00 0.00 32 1003.0
20260505215905 81 311 6.0 10.0 0.00 0.00 0.00 32 1003.0
20260505215402 81 292 4.0 8.0 0.00 0.00 0.00 32 1003.1
20260505214900 81 301 3.0 8.0 0.00 0.00 0.00 32 1003.0
20260505214357 81 229 5.0 8.0 0.00 0.00 0.00 32 1002.9
20260505213854 81 149 8.0 14.0 0.00 0.00 0.00 31 1002.7
20260505213352 82 184 1.0 13.0 0.00 0.00 0.00 31 1002.6
20260505212848 82 175 4.0 7.0 0.00 0.00 0.00 32 1002.6
20260505212345 82 223 2.0 4.0 0.00 0.00 0.00 32 1002.6
20260505211841 82 211 1.0 3.0 0.00 0.00 0.00 32 1002.7
20260505211339 82 318 4.0 9.0 0.00 0.00 0.00 31 1002.7
20260505210835 82 283 6.0 10.0 0.00 0.00 0.00 31 1002.5
20260505210332 82 147 2.0 10.0 0.00 0.00 0.00 31 1002.7
20260505205829 82 158 2.0 9.0 0.00 0.00 0.00 31 1002.4
20260505205328 83 239 4.0 13.0 0.00 0.00 0.00 30 1002.7
20260505204824 83 127 2.0 11.0 0.00 0.00 0.00 30 1002.6
20260505204322 83 29 5.0 11.0 0.00 0.00 0.00 29 1002.6
20260505203819 83 142 7.0 13.0 0.00 0.00 0.00 29 1002.7
20260505203316 84 131 3.0 11.0 0.00 0.00 0.00 29 1002.4
20260505202812 85 145 4.0 16.0 0.00 0.00 0.00 28 1002.6
20260505202308 85 314 6.0 9.0 0.00 0.00 0.00 27 1002.3
20260505201805 85 168 3.0 4.0 0.00 0.00 0.00 29 1002.7
20260505201302 84 236 6.0 9.0 0.00 0.00 0.00 28 1002.9
20260505200801 84 289 2.0 8.0 0.00 0.00 0.00 28 1002.8
20260505200257 84 227 6.0 8.0 0.00 0.00 0.00 27 1002.6
20260505195752 84 183 3.0 15.0 0.00 0.00 0.00 28 1002.9
20260505195251 84 219 2.0 13.0 0.00 0.00 0.00 28 1002.9
20260505194747 85 231 8.0 16.0 0.00 0.00 0.00 27 1002.9
20260505194244 85 42 4.0 9.0 0.00 0.00 0.00 27 1002.7
20260505193739 85 177 6.0 15.0 0.00 0.00 0.00 27 1002.7
20260505193237 86 101 7.0 9.0 0.00 0.00 0.00 27 1002.8
20260505192736 84 264 4.0 8.0 0.00 0.00 0.00 28 1002.9
20260505192233 84 212 5.0 11.0 0.00 0.00 0.00 27 1003.2
20260505191731 84 132 2.0 10.0 0.00 0.00 0.00 29 1003.0
20260505191229 85 149 4.0 10.0 0.00 0.00 0.00 29 1002.9
20260505190725 86 54 8.0 11.0 0.00 0.00 0.00 27 1003.1
20260505190225 84 155 2.0 6.0 0.00 0.00 0.00 28 1003.3
20260505185722 85 232 7.0 15.0 0.00 0.00 0.00 27 1003.4
20260505185218 84 186 2.0 9.0 0.00 0.00 0.00 29 1003.5